Wind_Speed
10 10 10 11 11 11 11 11 12 12 12 13 14 14 14 13 12 12 12 12 12 13 13 14 15 17 17 18 19 19 19 20 20 21 22 23 23 24 24 24 23 24 25
10 10 10 11 11 11 11 12 12 13 13 13 14 13 13 13 12 11 12 12 12 13 14 14 14 15 16 17 18 18 19 19 20 20 21 22 23 23 24 24 25 25 26
10 11 11 11 11 12 13 13 13 13 13 13 13 13 13 13 13 12 12 12 13 13 14 15 15 16 17 17 18 18 18 19 20 21 21 21 22 23 24 25 26 26 27
11 12 12 12 13 14 14 14 14 14 14 14 14 14 14 13 13 13 13 13 14 14 15 15 16 16 17 17 17 18 19 20 21 21 22 23 24 24 25 26 26 27 28
13 13 14 14 14 15 15 15 15 15 14 14 14 14 14 13 13 13 13 14 15 15 15 15 16 16 17 17 18 19 20 20 21 22 23 23 24 25 25 26 26 27 29
13 14 14 14 15 15 15 16 16 16 15 14 14 14 14 14 13 14 14 14 15 15 15 16 16 17 18 18 19 20 20 21 21 22 23 24 25 25 26 27 28 28 29
14 15 15 15 15 15 16 16 16 16 16 16 15 15 15 15 14 14 14 15 15 16 17 17 17 18 19 19 19 20 21 22 22 23 24 25 26 27 28 29 30 30 31
16 17 16 16 16 16 16 16 16 16 16 16 16 15 15 15 15 15 15 16 16 16 17 18 19 19 19 19 20 21 21 22 24 25 26 27 28 28 29 30 31 32 32
18 18 17 17 17 17 17 17 17 17 16 16 15 16 16 16 16 16 16 16 17 18 18 19 20 20 20 20 21 22 23 24 26 27 27 28 28 29 30 31 31 32 32
19 19 19 19 18 18 18 18 18 17 17 16 15 15 16 16 17 17 17 18 18 18 19 20 21 21 22 22 23 24 25 26 27 28 28 29 29 30 31 31 32 32 33
20 20 20 19 19 18 18 18 18 18 17 16 16 16 17 18 18 18 19 19 20 21 21 22 23 23 24 24 25 26 27 28 28 28 29 29 30 31 31 32 33 34 34
21 21 20 19 20 20 19 19 18 18 17 17 17 18 18 19 19 20 21 21 22 22 23 23 24 24 25 26 27 28 28 29 29 30 30 31 31 31 32 33 34 34 35
22 21 21 21 21 21 20 20 19 19 18 19 19 20 20 20 20 21 21 22 23 24 24 24 25 26 27 28 28 28 29 30 30 31 31 31 32 32 33 33 34 35 35
22 22 22 22 22 22 21 21 20 20 20 20 21 21 21 21 21 22 23 24 24 25 26 26 27 27 28 28 29 29 29 30 30 31 32 32 32 33 34 34 35 35 35
23 23 23 23 23 22 21 22 22 22 22 22 22 23 23 23 23 24 25 26 26 27 27 28 28 28 29 29 30 30 30 30 31 31 32 32 33 34 34 34 34 34 34
24 24 24 24 24 23 23 23 23 23 23 23 24 24 24 24 25 26 26 27 27 27 28 28 28 29 29 29 30 30 30 31 31 32 32 33 33 34 34 33 33 33 33
25 25 24 24 23 23 23 24 24 23 23 24 24 24 24 25 26 26 27 27 27 28 29 29 29 29 30 30 30 31 31 32 32 33 33 33 33 33 33 33 33 33 32
26 26 26 26 25 24 25 25 25 25 24 24 24 25 25 26 26 27 27 28 28 29 29 29 30 30 30 31 31 31 32 33 33 33 34 34 33 33 32 32 32 33 33
27 27 26 27 26 25 26 26 25 25 25 25 25 25 26 26 26 27 27 28 29 29 29 29 30 30 31 31 32 32 32 32 32 33 33 32 32 32 32 32 32 33 33
27 26 26 26 26 25 24 25 25 25 25 25 26 26 26 26 26 27 28 29 29 29 29 30 30 30 30 31 31 32 32 32 32 33 32 31 31 31 31 32 32 33 32
27 27 26 26 25 25 25 25 25 26 26 26 27 27 27 26 27 28 28 28 28 28 29 29 29 30 31 31 31 31 31 32 32 32 31 31 31 31 32 32 33 33 32
27 26 26 25 25 24 25 26 26 26 26 26 27 27 26 27 27 28 28 29 29 29 29 30 30 30 31 30 30 31 31 32 32 31 30 30 30 31 31 32 32 32 32
27 26 26 25 25 25 26 26 26 26 26 26 28 27 27 27 27 28 28 29 29 29 29 29 30 30 30 30 30 31 31 31 31 31 31 30 31 31 31 32 32 31 31
27 27 26 26 25 26 26 26 27 26 27 27 26 26 26 27 27 27 28 29 29 29 29 30 30 30 30 30 30 30 31 31 30 30 30 30 31 31 32 32 32 31 31
26 26 25 24 25 25 26 27 27 26 26 26 25 25 26 26 26 27 28 29 28 29 29 29 29 30 30 29 30 30 31 31 31 31 31 30 31 31 31 32 31 31 30
25 25 24 24 24 24 25 25 25 25 25 25 25 25 25 26 27 28 28 28 28 28 29 29 29 29 29 30 30 31 31 30 30 31 31 31 31 31 32 32 31 31 30
Wind_Direction
331 330 331 334 335 334 332 329 324 322 320 318 317 314 314 313 309 307 303 299 295 292 290 289 287 286 285 284 279 278 281 282 283 284 286 286 285 284 284 286 285 285 284
327 329 332 332 333 331 329 328 325 322 321 320 316 314 313 313 313 311 308 303 300 297 293 292 292 293 291 288 283 283 285 287 288 287 287 288 287 285 285 286 287 286 286
325 326 329 327 325 324 324 324 324 322 320 321 320 317 316 315 314 310 309 304 302 301 296 294 294 294 292 290 288 288 289 289 288 288 289 290 290 287 285 286 285 284 285
320 321 322 321 321 321 319 320 321 321 320 319 320 319 317 315 313 309 307 306 305 304 300 297 296 295 294 293 291 289 290 291 291 290 291 291 291 290 289 289 287 287 287
316 316 316 316 318 319 318 318 319 319 320 317 317 318 317 315 313 310 308 308 309 309 304 301 300 299 297 295 294 293 293 294 293 293 294 292 291 291 292 290 288 290 291
316 314 313 312 315 317 316 317 319 319 317 317 316 316 316 314 312 310 308 308 310 309 305 303 302 301 298 296 296 295 295 296 297 295 294 293 293 292 292 293 292 292 292
316 315 313 312 313 314 314 316 316 317 317 316 313 312 311 310 309 308 307 308 308 309 307 305 304 301 299 297 296 297 298 297 297 297 298 298 295 294 294 294 294 295 294
317 316 313 311 311 311 312 314 314 315 315 316 312 308 307 308 308 308 307 307 307 309 309 307 304 302 301 300 297 297 299 299 299 299 299 300 299 297 297 297 297 297 296
313 313 312 310 307 305 307 310 311 313 314 314 313 308 305 307 307 307 308 309 311 311 309 307 306 305 304 303 302 302 302 303 302 302 302 301 300 299 299 299 299 299 299
309 309 311 313 309 304 301 306 309 310 312 310 310 309 306 306 305 307 309 309 310 310 309 308 307 306 305 305 304 304 305 305 305 305 304 304 303 302 301 301 300 300 300
306 308 310 311 309 304 303 305 307 308 310 310 308 308 306 304 304 305 306 306 308 308 307 307 306 306 306 306 306 306 306 306 306 306 306 305 305 304 303 302 302 302 301
303 305 306 307 308 304 302 303 302 304 306 307 305 304 304 302 301 302 304 305 307 307 307 307 306 305 305 306 307 307 306 307 308 308 307 306 306 305 305 305 304 304 303
300 301 302 303 305 305 302 300 299 299 301 302 303 303 303 301 300 302 305 307 308 308 307 306 305 305 306 307 308 308 307 308 309 309 309 308 307 307 307 306 306 305 305
298 298 299 302 302 300 299 298 296 296 297 298 299 300 300 300 299 301 304 305 305 306 306 306 306 305 306 307 308 308 308 309 310 310 310 309 308 308 308 307 307 307 307
295 296 297 299 297 294 295 296 295 294 295 295 296 298 298 298 299 300 302 303 304 305 305 306 306 306 305 306 308 309 309 310 311 312 311 310 310 310 310 310 309 309 309
293 294 295 294 294 294 294 294 293 293 294 295 295 296 297 298 299 299 301 302 303 304 305 306 306 306 307 308 309 311 311 311 312 312 312 311 311 311 311 311 311 311 311
290 292 294 296 293 292 293 293 293 293 293 293 293 294 295 296 298 299 301 303 304 305 306 307 308 308 309 309 310 311 311 311 312 312 312 312 312 312 311 312 312 312 312
289 290 292 293 293 293 293 293 292 293 293 293 293 294 295 297 299 301 303 304 305 305 306 307 309 310 310 310 310 310 311 312 312 313 313 313 313 312 312 313 313 313 313
288 289 290 291 291 290 291 292 293 292 291 292 293 294 296 297 299 301 302 303 304 305 306 307 309 309 310 311 311 312 313 313 313 314 314 314 314 314 314 314 315 315 315
287 288 289 291 289 289 289 291 292 293 292 293 294 295 297 297 299 302 303 304 305 306 307 308 309 310 311 312 313 314 314 314 314 314 315 315 315 315 315 315 316 316 316
284 284 286 288 288 288 289 290 292 292 293 293 294 295 297 298 300 302 304 305 306 307 307 309 310 310 311 312 313 314 315 315 315 315 315 315 316 316 316 316 317 316 316
282 283 284 284 285 286 289 291 293 293 292 293 294 295 296 297 299 302 304 305 306 307 308 309 310 311 312 313 313 314 314 315 315 315 315 316 317 317 317 317 317 317 317
281 282 282 282 284 286 289 290 292 292 291 292 292 293 294 296 299 302 304 305 307 308 309 309 310 312 313 313 313 314 314 315 316 316 316 317 317 318 318 318 318 318 318
280 280 280 281 283 286 288 289 290 291 291 291 291 293 295 296 299 302 304 307 308 309 310 310 310 311 312 313 313 313 314 314 316 317 318 318 318 319 319 319 319 318 318
279 278 279 280 283 285 287 287 288 290 291 291 294 296 297 299 300 302 305 306 307 308 309 310 310 311 312 313 314 314 314 315 316 317 318 318 319 319 319 319 319 319 319
276 277 279 281 283 285 287 287 288 290 291 292 294 296 298 300 302 303 305 307 308 309 309 310 311 311 311 312 313 315 315 316 316 317 317 317 318 318 319 319 319 319 319
Height
5896 5894 5892 5891 5889 5887 5886 5884 5882 5880 5879 5877 5875 5873 5871 5869 5868 5867 5865 5864 5863 5862 5861 5860 5859 5858 5857 5856 5855 5854 5853 5853 5852 5851 5849 5848 5847 5846 5845 5844 5842 5841 5839
5894 5893 5891 5889 5888 5886 5884 5882 5881 5879 5877 5875 5873 5871 5869 5867 5866 5864 5863 5862 5860 5859 5858 5857 5855 5854 5853 5852 5851 5850 5849 5848 5847 5846 5844 5843 5842 5840 5839 5838 5836 5835 5833
5892 5891 5890 5888 5886 5885 5883 5881 5879 5876 5874 5872 5870 5868 5866 5864 5863 5862 5860 5859 5858 5856 5855 5854 5852 5851 5849 5848 5847 5846 5844 5843 5842 5841 5840 5838 5836 5834 5833 5831 5830 5828 5826
5891 5889 5888 5886 5884 5883 5881 5879 5876 5874 5872 5870 5868 5865 5863 5862 5861 5859 5858 5856 5855 5853 5852 5850 5849 5847 5845 5844 5842 5841 5840 5839 5837 5836 5834 5832 5830 5828 5827 5825 5823 5821 5819
5889 5887 5885 5884 5882 5880 5878 5876 5874 5872 5869 5867 5865 5863 5861 5859 5858 5857 5855 5854 5852 5850 5848 5847 5845 5843 5841 5840 5839 5837 5835 5834 5832 5830 5829 5826 5824 5822 5820 5818 5816 5814 5811
5886 5885 5883 5881 5879 5877 5875 5873 5871 5869 5867 5864 5862 5861 5859 5857 5855 5854 5853 5851 5849 5847 5845 5843 5842 5840 5838 5836 5834 5833 5831 5829 5827 5825 5823 5821 5818 5816 5814 5811 5809 5807 5804
5884 5881 5879 5878 5876 5874 5872 5870 5868 5866 5864 5862 5860 5858 5856 5854 5853 5851 5850 5848 5846 5844 5842 5840 5838 5836 5834 5832 5830 5828 5827 5824 5822 5820 5818 5815 5812 5810 5807 5804 5801 5799 5796
5881 5879 5877 5875 5873 5871 5869 5867 5865 5863 5861 5859 5856 5854 5853 5851 5850 5848 5846 5845 5843 5841 5839 5837 5834 5832 5830 5828 5826 5824 5822 5819 5817 5814 5812 5809 5806 5803 5800 5797 5793 5790 5787
5878 5876 5873 5871 5869 5868 5866 5864 5862 5860 5857 5855 5853 5851 5850 5848 5846 5845 5843 5841 5839 5837 5835 5833 5830 5828 5826 5823 5821 5819 5816 5814 5811 5808 5805 5802 5798 5795 5792 5789 5786 5782 5779
5874 5872 5870 5867 5865 5864 5862 5860 5858 5856 5854 5852 5850 5848 5846 5845 5843 5841 5840 5838 5836 5833 5831 5829 5826 5824 5821 5819 5816 5813 5810 5807 5804 5801 5798 5794 5791 5788 5784 5781 5777 5774 5771
5870 5868 5866 5864 5861 5859 5858 5856 5854 5853 5851 5848 5846 5845 5843 5841 5839 5838 5836 5834 5832 5829 5827 5824 5821 5819 5816 5813 5810 5807 5804 5801 5798 5794 5791 5787 5784 5780 5776 5772 5769 5765 5762
5865 5863 5862 5860 5858 5856 5854 5852 5850 5849 5847 5845 5843 5841 5839 5837 5835 5833 5831 5829 5827 5824 5822 5819 5816 5813 5810 5807 5804 5801 5798 5794 5791 5787 5783 5780 5776 5772 5768 5764 5760 5756 5752
5860 5859 5857 5855 5854 5852 5850 5848 5847 5845 5843 5841 5839 5837 5835 5833 5831 5829 5827 5824 5822 5819 5816 5813 5810 5807 5804 5801 5798 5794 5791 5788 5784 5780 5776 5772 5768 5764 5760 5756 5752 5748 5743
5855 5854 5852 5850 5848 5847 5845 5843 5842 5840 5838 5837 5835 5833 5831 5828 5826 5824 5821 5819 5816 5813 5811 5808 5804 5801 5798 5794 5791 5787 5784 5780 5776 5772 5768 5764 5760 5756 5752 5748 5744 5739 5735
5850 5848 5847 5845 5843 5841 5840 5838 5836 5835 5833 5832 5830 5828 5825 5823 5821 5819 5816 5813 5810 5808 5804 5801 5798 5795 5791 5788 5784 5780 5777 5773 5769 5765 5761 5757 5752 5748 5744 5739 5735 5730 5726
5844 5842 5841 5839 5837 5836 5834 5832 5831 5829 5828 5826 5824 5822 5820 5818 5815 5812 5810 5807 5804 5801 5798 5794 5791 5788 5784 5781 5777 5773 5769 5766 5762 5757 5753 5749 5744 5740 5735 5731 5727 5723 5718
5838 5836 5834 5832 5831 5829 5828 5826 5825 5824 5821 5819 5818 5816 5814 5811 5809 5806 5803 5800 5797 5794 5791 5787 5784 5781 5777 5774 5770 5766 5762 5758 5754 5750 5746 5741 5736 5732 5728 5723 5719 5715 5710
5831 5830 5828 5826 5825 5823 5822 5820 5819 5817 5815 5813 5811 5809 5807 5805 5802 5799 5796 5793 5790 5787 5784 5780 5777 5774 5770 5766 5763 5759 5755 5750 5746 5742 5738 5733 5729 5724 5720 5715 5711 5707 5702
5823 5822 5821 5819 5818 5817 5815 5813 5812 5810 5808 5806 5804 5802 5800 5798 5795 5792 5789 5786 5783 5780 5777 5773 5770 5766 5763 5759 5755 5751 5747 5743 5739 5734 5730 5725 5721 5717 5712 5708 5703 5699 5694
5816 5815 5814 5812 5811 5810 5808 5806 5804 5802 5801 5799 5797 5795 5793 5790 5787 5785 5782 5779 5776 5773 5769 5766 5763 5759 5755 5751 5747 5744 5739 5735 5731 5727 5722 5718 5714 5709 5705 5700 5696 5691 5686
5808 5807 5806 5805 5804 5803 5801 5799 5797 5795 5793 5792 5790 5787 5785 5783 5780 5777 5775 5772 5768 5766 5762 5759 5755 5752 5748 5744 5740 5736 5732 5728 5724 5719 5715 5710 5706 5702 5697 5693 5688 5684 5679
5800 5799 5798 5797 5796 5795 5794 5792 5790 5788 5786 5784 5782 5780 5777 5775 5773 5770 5767 5764 5761 5759 5755 5752 5748 5745 5741 5737 5733 5729 5725 5720 5716 5712 5707 5703 5699 5694 5690 5685 5681 5676 5672
5792 5791 5791 5790 5789 5787 5786 5785 5783 5781 5779 5777 5774 5772 5770 5767 5765 5762 5760 5757 5754 5751 5748 5744 5741 5737 5733 5730 5726 5722 5718 5713 5709 5705 5701 5696 5692 5687 5683 5678 5674 5669 5665
5785 5784 5783 5782 5781 5780 5779 5777 5776 5774 5771 5769 5767 5765 5763 5760 5758 5755 5753 5750 5747 5744 5741 5737 5734 5730 5726 5722 5718 5714 5710 5706 5702 5698 5694 5689 5685 5681 5676 5672 5667 5662 5658
5777 5776 5776 5775 5774 5772 5771 5770 5768 5766 5764 5762 5760 5758 5756 5753 5751 5748 5746 5743 5740 5737 5733 5730 5726 5723 5719 5715 5711 5707 5703 5699 5695 5691 5687 5683 5678 5674 5669 5665 5660 5656 5651
5769 5769 5768 5767 5766 5765 5764 5762 5761 5759 5757 5755 5753 5751 5749 5746 5744 5741 5739 5736 5733 5729 5726 5723 5719 5715 5711 5708 5704 5700 5696 5692 5688 5684 5680 5675 5671 5667 5662 5658 5653 5649 5644